TimeCST,TemperatureF,Dew PointF,Humidity,Sea Level PressureIn,VisibilityMPH,Wind Direction,Wind SpeedMPH,Gust SpeedMPH,PrecipitationIn,Events,Conditions,WindDirDegrees,DateUTC
12:56 AM,43.0,30.0,60,30.26,10.0,North,6.9,-,N/A,,Mostly Cloudy,10,2012-11-14 06:56:00
1:56 AM,42.1,30.0,62,30.25,10.0,NNE,9.2,-,N/A,,Mostly Cloudy,20,2012-11-14 07:56:00
2:56 AM,39.9,30.9,70,30.26,10.0,North,6.9,-,N/A,,Mostly Cloudy,10,2012-11-14 08:56:00
3:56 AM,39.0,30.0,70,30.26,10.0,NNW,6.9,-,N/A,,Scattered Clouds,340,2012-11-14 09:56:00
4:56 AM,39.0,30.9,73,30.27,10.0,North,5.8,-,N/A,,Mostly Cloudy,360,2012-11-14 10:56:00
5:56 AM,37.9,30.0,73,30.27,10.0,NNW,5.8,-,N/A,,Mostly Cloudy,340,2012-11-14 11:56:00
6:56 AM,39.9,30.9,70,30.28,10.0,North,5.8,-,N/A,,Mostly Cloudy,360,2012-11-14 12:56:00
7:56 AM,45.0,30.9,58,30.30,10.0,North,9.2,-,N/A,,Mostly Cloudy,360,2012-11-14 13:56:00
8:56 AM,48.0,33.1,56,30.29,10.0,North,8.1,-,N/A,,Scattered Clouds,350,2012-11-14 14:56:00
9:56 AM,51.1,37.9,61,30.31,10.0,NNW,4.6,-,N/A,,Scattered Clouds,340,2012-11-14 15:56:00
10:56 AM,57.0,39.9,53,30.27,10.0,NW,8.1,-,N/A,,Scattered Clouds,310,2012-11-14 16:56:00
11:56 AM,60.1,37.9,44,30.25,10.0,NNW,8.1,-,N/A,,Scattered Clouds,330,2012-11-14 17:56:00
12:56 PM,62.1,37.0,39,30.22,10.0,Variable,5.8,-,N/A,,Partly Cloudy,0,2012-11-14 18:56:00
1:56 PM,64.9,35.1,33,30.20,10.0,North,5.8,-,N/A,,Partly Cloudy,10,2012-11-14 19:56:00
2:56 PM,64.0,37.0,37,30.20,10.0,NW,6.9,-,N/A,,Partly Cloudy,310,2012-11-14 20:56:00
3:56 PM,62.1,37.0,39,30.21,10.0,North,8.1,-,N/A,,Clear,350,2012-11-14 21:56:00
4:56 PM,55.9,37.9,51,30.22,10.0,NNW,4.6,-,N/A,,Partly Cloudy,330,2012-11-14 22:56:00
5:56 PM,52.0,37.9,59,30.24,10.0,NNW,5.8,-,N/A,,Partly Cloudy,340,2012-11-14 23:56:00
6:56 PM,50.0,37.9,63,30.25,10.0,NNW,4.6,-,N/A,,Partly Cloudy,330,2012-11-15 00:56:00
7:56 PM,46.9,39.0,74,30.25,10.0,North,4.6,-,N/A,,Clear,360,2012-11-15 01:56:00
8:56 PM,46.0,37.9,73,30.25,10.0,North,5.8,-,N/A,,Clear,360,2012-11-15 02:56:00
9:56 PM,46.0,39.0,76,30.25,10.0,North,5.8,-,N/A,,Partly Cloudy,350,2012-11-15 03:56:00
10:56 PM,45.0,39.9,82,30.25,10.0,North,4.6,-,N/A,,Partly Cloudy,350,2012-11-15 04:56:00
11:56 PM,44.1,39.9,85,30.24,10.0,North,4.6,-,N/A,,Partly Cloudy,350,2012-11-15 05:56:00